Time,TemperatureF,DewpointF,PressureIn,WindDirection,WindDirectionDegrees,WindSpeedMPH,WindSpeedGustMPH,Humidity,HourlyPrecipIn,Conditions,Clouds,dailyrainin,SolarRadiationWatts/m^2,SoftwareType,DateUTC
2013-10-28 00:01:00,47.0,30.0,-100.00,ENE,66,13.0,34.0,52,0.00,,,0.05,0.000000,,2013-10-28 07:01:00,
2013-10-28 00:12:00,47.0,30.0,-100.00,ENE,66,13.0,34.0,52,0.00,,,0.05,0.000000,,2013-10-28 07:12:00,
2013-10-28 00:21:00,47.0,30.0,-100.00,ENE,66,13.0,34.0,52,0.00,,,0.05,0.000000,,2013-10-28 07:21:00,
2013-10-28 00:52:00,46.0,30.0,-100.00,NE,50,8.0,37.0,53,0.00,,,0.05,0.000000,,2013-10-28 07:52:00,
2013-10-28 01:02:00,46.0,30.0,-100.00,NE,50,8.0,37.0,53,0.00,,,0.05,0.000000,,2013-10-28 08:02:00,
2013-10-28 01:12:00,46.0,30.0,-100.00,NE,50,8.0,37.0,53,0.00,,,0.05,0.000000,,2013-10-28 08:12:00,
2013-10-28 01:21:00,46.0,30.0,-100.00,NE,50,8.0,37.0,53,0.00,,,0.05,0.000000,,2013-10-28 08:21:00,
2013-10-28 01:52:00,46.0,29.0,-100.00,NE,55,8.0,37.0,52,0.00,,,0.05,0.000000,,2013-10-28 08:52:00,
2013-10-28 02:02:00,46.0,29.0,-100.00,NE,55,8.0,37.0,52,0.00,,,0.05,0.000000,,2013-10-28 09:02:00,
2013-10-28 02:11:00,46.0,29.0,-100.00,NE,55,8.0,37.0,52,0.00,,,0.05,0.000000,,2013-10-28 09:11:00,
2013-10-28 02:21:00,46.0,29.0,-100.00,NE,55,8.0,37.0,52,0.00,,,0.05,0.000000,,2013-10-28 09:21:00,
2013-10-28 02:53:00,45.0,28.0,-100.00,ENE,62,9.0,32.0,52,0.00,,,0.05,0.000000,,2013-10-28 09:53:00,
2013-10-28 03:03:00,45.0,28.0,-100.00,ENE,62,9.0,32.0,52,0.00,,,0.05,0.000000,,2013-10-28 10:03:00,
2013-10-28 03:13:00,45.0,28.0,-100.00,ENE,62,9.0,32.0,52,0.00,,,0.05,0.000000,,2013-10-28 10:13:00,
2013-10-28 03:23:00,45.0,28.0,-100.00,ENE,62,9.0,32.0,52,0.00,,,0.05,0.000000,,2013-10-28 10:23:00,
2013-10-28 03:53:00,44.0,27.0,-100.00,NE,46,8.0,30.0,51,0.00,,,0.05,0.000000,,2013-10-28 10:53:00,
2013-10-28 04:03:00,44.0,27.0,-100.00,NE,46,8.0,30.0,51,0.00,,,0.05,0.000000,,2013-10-28 11:03:00,
2013-10-28 04:12:00,44.0,27.0,-100.00,NE,46,8.0,30.0,51,0.00,,,0.05,0.000000,,2013-10-28 11:12:00,
2013-10-28 04:22:00,44.0,27.0,-100.00,NE,46,8.0,30.0,51,0.00,,,0.05,0.000000,,2013-10-28 11:22:00,
2013-10-28 04:52:00,43.0,26.0,-100.00,NNE,30,8.0,30.0,50,0.00,,,0.05,0.000000,,2013-10-28 11:52:00,
2013-10-28 05:01:00,43.0,26.0,-100.00,NNE,30,8.0,30.0,50,0.00,,,0.05,0.000000,,2013-10-28 12:01:00,
2013-10-28 05:11:00,43.0,26.0,-100.00,NNE,30,8.0,30.0,50,0.00,,,0.05,0.000000,,2013-10-28 12:11:00,
2013-10-28 05:21:00,43.0,26.0,-100.00,NNE,30,8.0,30.0,50,0.00,,,0.05,0.000000,,2013-10-28 12:21:00,
2013-10-28 05:52:00,43.0,26.0,-100.00,ENE,70,10.0,27.0,50,0.00,,,0.05,0.000000,,2013-10-28 12:52:00,
2013-10-28 06:01:00,43.0,26.0,-100.00,ENE,70,10.0,27.0,50,0.00,,,0.05,0.000000,,2013-10-28 13:01:00,
2013-10-28 06:11:00,43.0,26.0,-100.00,ENE,70,10.0,27.0,50,0.00,,,0.05,0.000000,,2013-10-28 13:11:00,
2013-10-28 06:21:00,43.0,26.0,-100.00,ENE,70,10.0,27.0,50,0.00,,,0.05,0.000000,,2013-10-28 13:21:00,
2013-10-28 06:52:00,42.0,25.0,-100.00,East,90,8.0,34.0,50,0.00,,,0.03,0.000000,,2013-10-28 13:52:00,
2013-10-28 07:02:00,42.0,25.0,-100.00,East,90,8.0,34.0,50,0.00,,,0.03,0.000000,,2013-10-28 14:02:00,
2013-10-28 07:11:00,42.0,25.0,-100.00,East,90,8.0,34.0,50,0.00,,,0.03,0.000000,,2013-10-28 14:11:00,
2013-10-28 07:21:00,42.0,25.0,-100.00,East,90,8.0,34.0,50,0.00,,,0.03,0.000000,,2013-10-28 14:21:00,
2013-10-28 07:52:00,42.0,25.0,-100.00,East,96,7.0,32.0,50,0.00,,,0.01,0.000000,,2013-10-28 14:52:00,
2013-10-28 08:02:00,42.0,25.0,-100.00,East,96,7.0,32.0,50,0.00,,,0.01,0.000000,,2013-10-28 15:02:00,
2013-10-28 08:11:00,42.0,25.0,-100.00,East,96,7.0,32.0,50,0.00,,,0.01,0.000000,,2013-10-28 15:11:00,
2013-10-28 08:21:00,42.0,25.0,-100.00,East,96,7.0,32.0,50,0.00,,,0.01,0.000000,,2013-10-28 15:21:00,
2013-10-28 08:53:00,41.0,24.0,-100.00,East,86,7.0,34.0,51,0.00,,,0.00,4.000000,,2013-10-28 15:53:00,
2013-10-28 09:03:00,41.0,24.0,-100.00,East,86,7.0,34.0,51,0.00,,,0.00,4.000000,,2013-10-28 16:03:00,
2013-10-28 09:13:00,41.0,24.0,-100.00,East,86,7.0,34.0,51,0.00,,,0.00,4.000000,,2013-10-28 16:13:00,
2013-10-28 09:23:00,41.0,24.0,-100.00,East,86,7.0,34.0,51,0.00,,,0.00,4.000000,,2013-10-28 16:23:00,
2013-10-28 09:53:00,41.0,23.0,-100.00,NE,53,7.0,27.0,49,0.00,,,0.00,19.000000,,2013-10-28 16:53:00,
2013-10-28 10:02:00,41.0,23.0,-100.00,NE,53,7.0,27.0,49,0.00,,,0.00,19.000000,,2013-10-28 17:02:00,
2013-10-28 10:12:00,41.0,23.0,-100.00,NE,53,7.0,27.0,49,0.00,,,0.00,19.000000,,2013-10-28 17:12:00,
2013-10-28 10:22:00,41.0,23.0,-100.00,NE,53,7.0,27.0,49,0.00,,,0.00,19.000000,,2013-10-28 17:22:00,
2013-10-28 10:52:00,43.0,25.0,-100.00,ENE,58,7.0,28.0,48,0.00,,,0.00,113.000000,,2013-10-28 17:52:00,
2013-10-28 11:02:00,43.0,25.0,-100.00,ENE,58,7.0,28.0,48,0.00,,,0.00,113.000000,,2013-10-28 18:02:00,
2013-10-28 11:12:00,43.0,25.0,-100.00,ENE,58,7.0,28.0,48,0.00,,,0.00,113.000000,,2013-10-28 18:12:00,
2013-10-28 11:21:00,43.0,25.0,-100.00,ENE,58,7.0,28.0,48,0.00,,,0.00,113.000000,,2013-10-28 18:21:00,
2013-10-28 11:52:00,44.0,24.0,-100.00,ENE,77,7.0,36.0,45,0.00,,,0.00,344.000000,,2013-10-28 18:52:00,
2013-10-28 12:01:00,44.0,24.0,-100.00,ENE,77,7.0,36.0,45,0.00,,,0.00,344.000000,,2013-10-28 19:01:00,
2013-10-28 12:11:00,44.0,24.0,-100.00,ENE,77,7.0,36.0,45,0.00,,,0.00,344.000000,,2013-10-28 19:11:00,
2013-10-28 12:21:00,44.0,24.0,-100.00,ENE,77,7.0,36.0,45,0.00,,,0.00,344.000000,,2013-10-28 19:21:00,
2013-10-28 12:52:00,45.0,23.0,-100.00,East,90,6.0,26.0,41,0.00,,,0.00,441.000000,,2013-10-28 19:52:00,
2013-10-28 13:02:00,45.0,23.0,-100.00,East,90,6.0,26.0,41,0.00,,,0.00,441.000000,,2013-10-28 20:02:00,
2013-10-28 13:11:00,45.0,23.0,-100.00,East,90,6.0,26.0,41,0.00,,,0.00,441.000000,,2013-10-28 20:11:00,
2013-10-28 13:21:00,45.0,23.0,-100.00,East,90,6.0,26.0,41,0.00,,,0.00,441.000000,,2013-10-28 20:21:00,
2013-10-28 13:52:00,46.0,22.0,-100.00,East,85,5.0,19.0,38,0.00,,,0.00,462.000000,,2013-10-28 20:52:00,
2013-10-28 14:02:00,46.0,22.0,-100.00,East,85,5.0,19.0,38,0.00,,,0.00,462.000000,,2013-10-28 21:02:00,
2013-10-28 14:11:00,46.0,22.0,-100.00,East,85,5.0,19.0,38,0.00,,,0.00,462.000000,,2013-10-28 21:11:00,
2013-10-28 14:21:00,46.0,22.0,-100.00,East,85,5.0,19.0,38,0.00,,,0.00,462.000000,,2013-10-28 21:21:00,
2013-10-28 14:54:00,47.0,23.0,-100.00,NE,46,5.0,22.0,38,0.00,,,0.00,458.000000,,2013-10-28 21:54:00,
2013-10-28 15:03:00,47.0,23.0,-100.00,NE,46,5.0,22.0,38,0.00,,,0.00,458.000000,,2013-10-28 22:03:00,
2013-10-28 15:13:00,47.0,23.0,-100.00,NE,46,5.0,22.0,38,0.00,,,0.00,458.000000,,2013-10-28 22:13:00,
2013-10-28 15:23:00,47.0,23.0,-100.00,NE,46,5.0,22.0,38,0.00,,,0.00,458.000000,,2013-10-28 22:23:00,
2013-10-28 15:53:00,47.0,21.0,-100.00,East,86,5.0,18.0,36,0.00,,,0.00,392.000000,,2013-10-28 22:53:00,
2013-10-28 16:03:00,47.0,21.0,-100.00,East,86,5.0,18.0,36,0.00,,,0.00,392.000000,,2013-10-28 23:03:00,
2013-10-28 16:12:00,47.0,21.0,-100.00,East,86,5.0,18.0,36,0.00,,,0.00,392.000000,,2013-10-28 23:12:00,
2013-10-28 16:22:00,47.0,21.0,-100.00,East,86,5.0,18.0,36,0.00,,,0.00,392.000000,,2013-10-28 23:22:00,
2013-10-28 16:52:00,47.0,21.0,-100.00,ENE,61,3.0,15.0,36,0.00,,,0.00,284.000000,,2013-10-28 23:52:00,
2013-10-28 17:01:00,47.0,21.0,-100.00,ENE,61,3.0,15.0,36,0.00,,,0.00,284.000000,,2013-10-29 00:01:00,
2013-10-28 17:11:00,47.0,21.0,-100.00,ENE,61,3.0,15.0,36,0.00,,,0.00,284.000000,,2013-10-29 00:11:00,
2013-10-28 17:21:00,47.0,21.0,-100.00,ENE,61,3.0,15.0,36,0.00,,,0.00,284.000000,,2013-10-29 00:21:00,
2013-10-28 17:52:00,45.0,21.0,-100.00,NE,55,6.0,16.0,38,0.00,,,0.00,150.000000,,2013-10-29 00:52:00,
2013-10-28 18:01:00,45.0,21.0,-100.00,NE,55,6.0,16.0,38,0.00,,,0.00,150.000000,,2013-10-29 01:01:00,
2013-10-28 18:11:00,45.0,21.0,-100.00,NE,55,6.0,16.0,38,0.00,,,0.00,150.000000,,2013-10-29 01:11:00,
2013-10-28 18:21:00,45.0,21.0,-100.00,NE,55,6.0,16.0,38,0.00,,,0.00,150.000000,,2013-10-29 01:21:00,
2013-10-28 18:53:00,43.0,22.0,-100.00,East,95,3.0,17.0,42,0.00,,,0.00,7.000000,,2013-10-29 01:53:00,
2013-10-28 19:02:00,43.0,22.0,-100.00,East,95,3.0,17.0,42,0.00,,,0.00,7.000000,,2013-10-29 02:02:00,
2013-10-28 19:11:00,43.0,22.0,-100.00,East,95,3.0,17.0,42,0.00,,,0.00,7.000000,,2013-10-29 02:11:00,
2013-10-28 19:21:00,43.0,22.0,-100.00,East,95,3.0,17.0,42,0.00,,,0.00,7.000000,,2013-10-29 02:21:00,
2013-10-28 19:25:00,42.0,22.0,-100.00,SSE,165,4.0,18.0,44,0.00,,,0.00,0.000000,,2013-10-29 02:25:00,
2013-10-28 19:54:00,42.0,22.0,-100.00,SSE,165,4.0,18.0,44,0.00,,,0.00,0.000000,,2013-10-29 02:54:00,
2013-10-28 20:03:00,42.0,22.0,-100.00,SSE,165,4.0,18.0,44,0.00,,,0.00,0.000000,,2013-10-29 03:03:00,
2013-10-28 20:14:00,42.0,22.0,-100.00,SSE,165,4.0,18.0,44,0.00,,,0.00,0.000000,,2013-10-29 03:14:00,
2013-10-28 20:55:00,42.0,21.0,-100.00,NE,34,1.0,7.0,43,0.00,,,0.00,0.000000,,2013-10-29 03:55:00,
2013-10-28 21:03:00,42.0,21.0,-100.00,NE,34,1.0,7.0,43,0.00,,,0.00,0.000000,,2013-10-29 04:03:00,
2013-10-28 21:13:00,42.0,21.0,-100.00,NE,34,1.0,7.0,43,0.00,,,0.00,0.000000,,2013-10-29 04:13:00,
2013-10-28 21:24:00,42.0,21.0,-100.00,NE,34,1.0,7.0,43,0.00,,,0.00,0.000000,,2013-10-29 04:24:00,
2013-10-28 21:57:00,43.0,21.0,-100.00,West,272,2.0,14.0,41,0.00,,,0.00,0.000000,,2013-10-29 04:57:00,
2013-10-28 22:04:00,43.0,21.0,-100.00,West,272,2.0,14.0,41,0.00,,,0.00,0.000000,,2013-10-29 05:04:00,
2013-10-28 22:18:00,43.0,21.0,-100.00,West,272,2.0,14.0,41,0.00,,,0.00,0.000000,,2013-10-29 05:18:00,
2013-10-28 22:25:00,42.0,20.0,-100.00,NNW,347,1.0,6.0,41,0.00,,,0.00,0.000000,,2013-10-29 05:25:00,
2013-10-28 22:52:00,42.0,20.0,-100.00,NNW,347,1.0,6.0,41,0.00,,,0.00,0.000000,,2013-10-29 05:52:00,
2013-10-28 23:06:00,42.0,20.0,-100.00,NNW,347,1.0,6.0,41,0.00,,,0.00,0.000000,,2013-10-29 06:06:00,
2013-10-28 23:16:00,42.0,20.0,-100.00,NNW,347,1.0,6.0,41,0.00,,,0.00,0.000000,,2013-10-29 06:16:00,
2013-10-28 23:52:00,42.0,21.0,-100.00,East,82,2.0,5.0,43,0.00,,,0.00,0.000000,,2013-10-29 06:52:00,